Flag for Germany

Past Weather in Siegen, North Rhine-Westphalia, Germany — Yesterday and Last 2 Weeks

Now
54 °F

Drizzle. Partly sunny.


Feels Like: 50 °F
Forecast: 53 / 45 °F
Wind: 12 mph from Northwest

Location: Koeln / Bonn
Current Time: Sep 26, 2020 at 2:39:25 pm
Latest Report: Sep 26, 2020 at 1:50 pm
Visibility: N/A
Pressure29.47 "Hg
Humidity: 88%
Dew Point: 50 °F
Location of SiegenLocation

Past Weather in Siegen — Graph

°F

Siegen Temperature Yesterday

Maximum temperature yesterday: 61 °F (at 12:50 am)
Minimum temperature yesterday: 48 °F (at 6:50 am)
Average temperature yesterday: 54 °F

High & Low Weather Summary for the Past Weeks

 TemperatureHumidityPressure
High91 °F (Sep 15, 3:20 pm)100% (Sep 13, 4:50 am)30.33 "Hg (Sep 13, 4:50 am)
Low43 °F (Sep 21, 6:50 am)23% (Sep 15, 4:20 pm)29.36 "Hg (Sep 26, 4:50 am)
Average63 °F64%29.98 "Hg
* Reported Sep 11 1:20 pm — Sep 26 1:20 pm, Siegen. Weather by CustomWeather, © 2020

Note: Actual official high and low records may vary slightly from our data, if they occured in-between our weather recording intervals... More about our weather records

Siegen Weather History for the Previous 24 Hours

Scroll right to see more
 ConditionsComfort  
Time TempWeatherWind HumidityBarometerVisibility
1:20 pm
Sat, Sep 26
54 °FDrizzle. Broken clouds.12 mph88%29.47 "HgN/A
12:50 pm52 °FPartly sunny.13 mph94%29.45 "HgN/A
12:20 pm52 °FPartly sunny.10 mph94%29.45 "HgN/A
11:50 am52 °FLight rain. Partly sunny.12 mph94%29.45 "Hg4 mi
11:20 am52 °FDrizzle. Partly sunny.16 mph94%29.42 "Hg4 mi
10:50 am52 °FLight rain. Partly sunny.10 mph94%29.42 "HgN/A
10:20 am50 °FDrizzle. Partly sunny.14 mph100%29.39 "Hg1 mi
9:50 am50 °FDrizzle. Partly sunny.15 mph94%29.39 "Hg1 mi
9:20 am50 °FDrizzle. Partly sunny.13 mph94%29.39 "Hg3 mi
8:50 am50 °FLight rain. Partly sunny.13 mph94%29.39 "Hg4 mi
8:20 am50 °FLight rain. Partly sunny.14 mph94%29.39 "HgN/A
7:50 am50 °FDrizzle. Partly sunny.13 mph94%29.39 "Hg3 mi
7:20 am50 °FPassing clouds.7 mph94%29.39 "Hg2 mi
6:50 am48 °FPassing clouds.9 mph94%29.36 "HgN/A
6:20 am48 °FPassing clouds.8 mph94%29.36 "HgN/A
5:50 am48 °FPassing clouds.10 mph94%29.36 "HgN/A
5:20 am48 °FLight rain. Passing clouds.13 mph94%29.36 "HgN/A
4:50 am48 °FLight rain. Passing clouds.9 mph87%29.36 "HgN/A
4:20 am50 °FLight rain. Passing clouds.9 mph82%29.39 "HgN/A
3:50 am48 °FLight rain. Passing clouds.12 mph94%29.39 "HgN/A
3:20 am48 °FLight rain. Passing clouds.10 mph94%29.42 "HgN/A
2:50 am50 °FLight rain. Passing clouds.15 mph82%29.42 "HgN/A
1:50 am50 °FPassing clouds.13 mph88%29.42 "HgN/A
1:20 am50 °FLight rain. Passing clouds.12 mph88%29.42 "HgN/A
12:50 am50 °FLight rain. Passing clouds.8 mph88%29.42 "HgN/A
12:20 am48 °FLight rain. Passing clouds.10 mph87%29.42 "HgN/A
11:50 pm
Fri, Sep 25
50 °FLight rain. Passing clouds.10 mph82%29.45 "HgN/A
11:20 pm50 °FLight rain. Passing clouds.14 mph82%29.45 "HgN/A
10:50 pm52 °FLight rain. Passing clouds.13 mph77%29.45 "HgN/A
10:20 pm52 °FPassing clouds.9 mph77%29.47 "HgN/A
9:50 pm52 °FPassing clouds.10 mph72%29.45 "HgN/A
9:20 pm52 °FPassing clouds.14 mph77%29.47 "HgN/A
8:50 pm52 °FPassing clouds.13 mph77%29.47 "HgN/A
8:20 pm52 °FPassing clouds.14 mph77%29.47 "HgN/A
7:50 pm52 °FPassing clouds.9 mph77%29.47 "HgN/A
7:20 pm52 °FPassing clouds.12 mph82%29.47 "HgN/A
6:50 pm52 °FPassing clouds.6 mph82%29.45 "HgN/A
6:20 pm52 °FSprinkles. Scattered clouds.16 mph82%29.45 "HgN/A
5:50 pm57 °FSprinkles. Scattered clouds.9 mph63%29.45 "HgN/A
5:20 pm57 °FScattered showers. Scattered clouds.8 mph72%29.45 "HgN/A
4:50 pm57 °FSprinkles. Scattered clouds.14 mph63%29.45 "HgN/A
4:20 pm59 °FSprinkles. Scattered clouds.12 mph55%29.45 "HgN/A
3:50 pm59 °FScattered clouds.17 mph55%29.45 "HgN/A
3:20 pm57 °FScattered clouds.9 mph59%29.45 "HgN/A
2:50 pm59 °FScattered clouds.12 mph55%29.45 "HgN/A
2:20 pm59 °FScattered clouds.10 mph55%29.45 "HgN/A
Weather by CustomWeather, © 2020

See weather overview